Location: Saluda
(35.2377°N, 82.3468°W)
Time: 03:43:26
(UTC+00:00)

Vanguard 2 Rocket - Pass Details

Date: 03 October 2022
Orbit: 555 x 3321 km, 32.9° (Epoch: 05 December)

Event Time Altitude Azimuth Distance (km) Brightness Sun altitude
Rises 08:20:31 0° 278° (W) 4,904 - -37.7°
Reaches altitude 10° 08:24:32 10° 274° (W) 3,457 - -36.9°
Maximum altitude 08:32:13 52° 201° (SSW) 1,121 - -35.5°
Exits shadow 08:36:24 14° 127° (SE) 1,955 8.9 -34.7°
Drops below altitude 10° 08:36:57 10° 125° (SE) 2,150 9.1 -34.6°
Sets 08:38:56 0° 119° (ESE) 2,916 10.0 -34.3°
